Miscellaneous Local Product
Issued by NWS Hastings, NE

Home | Current Version | Previous Version | Graphics & Text | Print | Product List | Glossary On
Versions: 1 2 3 4 5 6 7 8 9 10 11 12 13 14 15 16 17 18 19 20 21 22 23 24 25 26 27 28 29 30 31 32 33 34 35 36 37 38 39 40 41 42 43 44 45 46 47 48 49 50
000
AXUS43 KGID 072302
MISGRI

GID CWA HOURLY WEATHER ROUNDUP
NATIONAL WEATHER SERVICE HASTINGS NE
500 PM CST WED DEC 07 2016

NOTE: "FAIR" INDICATES FEW OR NO CLOUDS BELOW 12,000 FEET WITH NO
SIGNIFICANT WEATHER AND/OR OBSTRUCTIONS TO VISIBILITY.

...SOUTH CENTRAL NEBRASKA...

CITY           SKY/WX    TMP DP  RH WIND       PRES   REMARKS
GRAND ISLAND   CLEAR     21   4  47 NW15      30.37R WCI   8
HASTINGS       CLEAR     21   2  43 NW13      30.38R WCI   9
KEARNEY        PTCLDY    21   0  39 NW15      30.37R WCI   8
ORD            CLEAR     18   0  45 NW13      30.36R WCI   5
YORK           CLEAR     21   5  49 NW12      30.37R WCI   9
AURORA         CLEAR     21   4  46 NW12      30.37R WCI   9
LEXINGTON      CLOUDY    21   3  45 NW16      30.37R WCI   7
HOLDREGE       CLEAR     20   4  50 NW7       30.37R WCI  11
HEBRON         CLEAR     23   7  49 NW7       30.39R WCI  15

...NEBRASKA PANHANDLE...

CITY           SKY/WX    TMP DP  RH WIND       PRES   REMARKS
CHADRON        CLEAR     11  -5  48 NW21G29   30.40R WCI  -8
ALLIANCE       CLEAR     11  -1  58 NW15      30.32R WCI  -5
SCOTTSBLUFF    CLEAR     11  -2  56 NW12      30.36R WCI  -3
SIDNEY         CLEAR     10   0  63 N14       30.31R WCI  -6

...WESTERN AND NORTH CENTRAL NEBRASKA...

CITY           SKY/WX    TMP DP  RH WIND       PRES   REMARKS
VALENTINE      CLEAR     13  -1  54 NW23G31   30.37R WCI  -6
AINSWORTH      CLEAR     14   3  61 NW18G24   30.37R WCI  -3
ONEILL         CLEAR     16   3  56 NW16G22   30.36R WCI   1
BROKEN BOW     CLEAR     19   1  45 NW16      30.35R WCI   4
IMPERIAL       MOCLDY    14   7  73 N14       30.36R WCI  -1
NORTH PLATTE   PTCLDY    18   5  57 NW10      30.36R WCI   6
MCCOOK         CLOUDY    18  11  74 NW8       30.39R WCI   8

...EASTERN NEBRASKA...

CITY           SKY/WX    TMP DP  RH WIND       PRES   REMARKS
NORFOLK        CLEAR     17   2  51 NW18      30.34R WCI   1
SO SIOUX CITY  CLEAR     20   6  55 W16       30.34R WCI   6
TEKAMAH        CLEAR     21   7  54 NW22      30.35R WCI   5
COLUMBUS       CLEAR     19   1  45 NW15G23   30.37R WCI   5
ALBION         CLEAR     19   2  48 NW15G22   30.36R WCI   4
OMAHA EPPLEY   PTCLDY    23   6  48 W12       30.35R WCI  12
OFFUTT AFB     CLEAR     22   7  51 NW9       30.35R WCI  12
MILLARD        CLEAR     24   7  48 W10       30.35S WCI  13
LINCOLN        CLEAR     24   5  44 NW10      30.39R WCI  14
NEBRASKA CITY  CLEAR     23   5  45 NW13      30.36R WCI  11
BEATRICE       CLEAR     23   8  50 NW13      30.38R WCI  12
FALLS CITY     CLEAR     24   8  50 NW13      30.37R WCI  12

...NORTHERN KANSAS...

CITY           SKY/WX    TMP DP  RH WIND       PRES   REMARKS
GOODLAND       CLOUDY    15   7  70 N14       30.33R WCI   0
HILL CITY      MOCLDY    20  12  71 NW8       30.41R WCI  10
NORTON         CLEAR     16   9  73 W8        30.38R WCI   5
PHILLIPSBURG   PTCLDY    21  12  68 NW9       30.42R WCI  11
SMITH CENTER   CLEAR     19  10  68 NW9       30.40R WCI   9
BELOIT         CLEAR     25   9  50 NW8       30.40R WCI  16
HAYS           CLOUDY    22  15  75 N14       30.40R WCI   9
RUSSELL        CLOUDY    22  15  75 N12       30.38R WCI  10
CONCORDIA      CLEAR     24  10  55 NW12      30.39R WCI  13
SALINA         CLEAR     25  18  74 NW7       30.41R WCI  17
TOPEKA         CLOUDY    26  17  68 NW9       30.38R WCI  17



USA.gov is the U.S. government's official web portal to all federal, state and local government web resources and services.